Regional Weather Roundup
Issued by NWS

Home | Current Version | Previous Version | Graphics & Text | Print | Product List | Glossary On
Versions: 1 2 3 4 5 6 7 8 9 10 11 12 13 14 15 16 17 18 19 20 21 22 23 24 25 26 27 28 29 30 31 32 33 34 35 36 37 38 39 40 41 42 43 44 45 46 47 48 49 50
000
ASUS43 KMPX 211810
RWRMN
WEATHER ROUNDUP FOR MINNESOTA
NATIONAL WEATHER SERVICE TWIN CITIES/CHANHASSEN MN
100 PM CDT TUE OCT 21 2014


NOTE: "FAIR" INDICATES FEW OR NO CLOUDS BELOW 12,000 FEET WITH NO
SIGNIFICANT WEATHER AND/OR OBSTRUCTIONS TO VISIBILITY. N/A MEANS
CURRENT SKY AND/OR WEATHER CONDITIONS ARE NOT AVAILABLE.

MNZ060>063-068>070-211900-
   Twin Cities Metro

CITY           SKY/WX    TMP DP  RH WIND       PRES   REMARKS
TWIN CITIES    SUNNY     53  40  61 SE12      30.18F
6HR MIN TEMP:  40; 6HR MAX TEMP:  53;

ST PAUL        SUNNY     53  40  61 SE12      30.20F
CRYSTAL        SUNNY     55  38  52 E8        30.17F
BLAINE         SUNNY     55  41  58 SE9G16    30.18
LAKEVILLE      SUNNY     54  41  62 E9        30.17F
EDEN PRAIRIE   SUNNY     54  41  61 E9        30.17F
6HR MIN TEMP:  38; 6HR MAX TEMP:  55;

SOUTH ST PAUL  SUNNY     54  39  57 SE8       30.19F
LAKE ELMO      FAIR      54  39  58 SE7       30.20F
$$
MNZ001>005-007-008-013>017-022>024-027-028-211900-
   Northwest Minnesota

CITY           SKY/WX    TMP DP  RH WIND       PRES   REMARKS
BEMIDJI        SUNNY     52  39  62 SE16G22   30.09F
HALLOCK        SUNNY     59  43  55 SE22      29.96F
ROSEAU         SUNNY     55  43  62 SE14      30.03F
WARROAD        SUNNY     54  43  66 SE13      30.06F
THIEF RVR FALL SUNNY     57  39  51 SE22      30.00F
CROOKSTON      SUNNY     61  43  51 S22       29.98F
FOSSTON        SUNNY     57  39  51 SE13G22   30.03F
DETROIT LAKES  SUNNY     55  41  58 SE22G28   30.04F
MOORHEAD       SUNNY     63  41  45 S25G32    29.98F
PARK RAPIDS    SUNNY     53  38  56 SE15      30.09F
MAHNOMEN       FAIR      57  40  53 SE18G25   30.02F
$$
MNZ006-009>011-018-025>026-211900-
   North Central Minnesota

CITY           SKY/WX    TMP DP  RH WIND       PRES   REMARKS
BAUDETTE       SUNNY     52  38  58 SE13G20   30.09F
FLAG ISLAND    SUNNY     48  39  71 S23       30.06F
INTL FALLS     MOSUNNY   46  35  65 SE17      30.16F
6HR MIN TEMP:  32; 6HR MAX TEMP:  48;

WASKISH        SUNNY     54  39  58 E15       30.10F
BIG FORK       SUNNY     50  37  62 SE10G21   30.16F
LONGVILLE      SUNNY     52  39  62 SE12G18   30.14F
GRAND RAPIDS   SUNNY     48  36  61 SE15      30.17F
CRANE LAKE     CLOUDY    43  36  75 SE7       30.23F
ORR            CLOUDY    43  34  70 SE9       30.18F
COOK           CLOUDY    43  36  75 SE7       30.21F
WALKER         FAIR      51  39  64 SE8G17    30.12F
$$
MNZ012-019>021-037-211900-
   Northeast Minnesota

CITY           SKY/WX    TMP DP  RH WIND       PRES   REMARKS
DULUTH         CLOUDY    43  35  73 E13       30.22F
6HR MIN TEMP:  42; 6HR MAX TEMP:  44;

ELY            CLOUDY    39  34  81 SE10      30.24S
HIBBING        CLOUDY    45  35  68 SE15G23   30.21F
EVELETH        CLOUDY    43  34  70 SE8       30.22F
DULUTH HARBOR  CLOUDY    46  37  71 E13       30.25F
TWO HARBORS    CLOUDY    45  27  49 E10       30.24S
SILVER BAY     MOSUNNY   43  36  75 E8        30.25S
GRAND MARAIS     N/A     42  32  67 E9        30.31S
G MARAIS ARPRT CLOUDY    36  28  75 E8        30.27S
$$
MNZ029>031-032-039>041-046>048-054>057-064-211900-
   West Central Minnesota

CITY           SKY/WX    TMP DP  RH WIND       PRES   REMARKS
FERGUS FALLS   SUNNY     61  37  41 SE25      30.03F
WHEATON        SUNNY     61  39  44 SE25G32   30.00F
MORRIS         SUNNY     61  43  51 SE23G29   30.03F
ALEXANDRIA     SUNNY     57  41  55 SE17G28   30.10F
ELBOW LAKE     FAIR      59  42  52 SE21G29   30.04F
WADENA         SUNNY     54  41  62 SE16      30.09F
GLENWOOD       SUNNY     57  43  58 SE14      30.10F
APPLETON       SUNNY     64  39  39 SE16G25   30.03F
BENSON         SUNNY     61  43  51 S17G24    30.07F
ORTONVILLE     SUNNY     63  41  45 SE18G24   30.00F
MADISON        SUNNY     66  43  42 SE18G25   30.03F
WILLMAR        FAIR      61  39  44 SE17      30.11F
$$
MNZ033>034-036-042>043-049>051-058-059-211900-
   Central Minnesota

CITY           SKY/WX    TMP DP  RH WIND       PRES   REMARKS
ST CLOUD       SUNNY     57  40  52 SE12      30.16F
6HR MIN TEMP:  38; 6HR MAX TEMP:  57;

SAUK CENTRE    FAIR      56  41  57 SE13      30.12S
PAYNESVILLE    SUNNY     54  40  58 E13       30.13F
AITKIN         SUNNY     55  39  54 E8        30.15F
PINE RIVER     SUNNY     52  39  62 SE9       30.16F
BRAINERD       SUNNY     51  38  60 SE14G20   30.15F
STAPLES        SUNNY     54  37  54 SE12G18   30.12F
LONG PRAIRIE   FAIR      54  39  58 SE13      30.13F
LITTLE FALLS   SUNNY     54  37  54 E13       30.14F
LITCHFIELD     SUNNY     57  45  62 SE9       30.14F
BUFFALO        SUNNY     55  38  54 E7        30.17F
MAPLE LAKE     SUNNY     56  43  61 SE7       30.17F
$$
MNZ037-044-045-052-053-211900-
   East Central Minnesota

CITY           SKY/WX    TMP DP  RH WIND       PRES   REMARKS
PRINCETON      SUNNY     55  39  54 SE9       30.17F
MORA           SUNNY     50  37  62 SE6       30.20F
CAMBRIDGE      SUNNY     55  39  54 SE7       30.17F
RUSH CITY      MOSUNNY   53  39  57 E6        30.19F
MOOSE LAKE     SUNNY     50  36  57 E6        30.18F
HINCKLEY       FAIR      52  37  58 E9        30.19F
CLOQUET        CLOUDY    45  36  70 E9        30.22S
MCGREGOR       SUNNY     50  37  62 SE9       30.19F
$$
MNZ071>073-080-081-089-090-097-098-211900-
   Southwest Minnesota

CITY           SKY/WX    TMP DP  RH WIND       PRES   REMARKS
MONTEVIDEO     SUNNY     63  41  45 S13G25    30.06F
GRANITE FALLS  SUNNY     62  40  44 E16G22    30.08F
CANBY          SUNNY     69  40  34 SE18      30.03F
MARSHALL       SUNNY     66  39  37 S17       30.04F
REDWOOD FALLS  SUNNY     62  41  46 SE20G25   30.09F
OLIVIA         SUNNY     61  41  48 SE15      30.09F
PIPESTONE      SUNNY     68  37  32 S17       30.04F
WINDOM         SUNNY     64  39  39 SE13      30.10F
WORTHINGTON    SUNNY     66  39  37 SE12G17   30.09F
JACKSON        SUNNY     64  36  34 S10       30.11F
TRACY          SUNNY     66  42  42 SE14      30.07F
SLAYTON        SUNNY     67  37  33 SE14      30.07F
$$
MNZ065>067-074>077-082>085-091>093-211900-
   South Central Minnesota

CITY           SKY/WX    TMP DP  RH WIND       PRES   REMARKS
MANKATO        SUNNY     59  39  47 SE15      30.15F
NEW ULM        SUNNY     61  43  51 SE10G17   30.12F
ST JAMES       SUNNY     64  39  39 SE13      30.12F
FAIRMONT       SUNNY     61  39  44 SE14      30.12F
GLENCOE        SUNNY     59  44  57 E12       30.14F
FARIBAULT      SUNNY     57  43  58 SE8       30.17F
OWATONNA       SUNNY     57  41  54 SE8       30.17F
WASECA         SUNNY     55  36  47 SE8       30.17F
ALBERT LEA     SUNNY     57  41  54 S10       30.16F
$$
MNZ078>079-086>088-094>096-211900-
   Southeast Minnesota

CITY           SKY/WX    TMP DP  RH WIND       PRES   REMARKS
ROCHESTER      SUNNY     54  41  61 S7        30.20F
6HR MIN TEMP:  37; 6HR MAX TEMP:  54;

RED WING       SUNNY     54  37  54 E10       30.20S
STANTON        SUNNY     56  41  58 SE7       30.17F
DODGE CENTER   SUNNY     55  43  62 E10G16    30.18F
WINONA         SUNNY     54  41  62 SE6       30.22F
AUSTIN         SUNNY     55  41  58 SE8       30.17F
PRESTON        SUNNY     51  39  62 E3        30.20F
$$
ABBREVIATIONS USED IN REMARKS
   TC - TEMPERATURES IN CELSIUS
  WCI - WIND CHILL INDEX
   HX - HEAT INDEX
  VSB - VISIBILITY
$$



USA.gov is the U.S. government's official web portal to all federal, state and local government web resources and services.